Location: Deurze
(52.9838°N, 6.6090°E)
Time: 18:48:29
(UTC+00:00)

Cosmos 540 Rocket - Pass Details

Date: 11 March 2026
Orbit: 734 x 748 km, 74.1° (Epoch: 20 April)

Event Time Altitude Azimuth Distance (km) Brightness Sun altitude
Rises 19:10:48 0° 334° (NNW) 3,197 7.4 -15.8°
Reaches altitude 10° 19:13:11 10° 336° (NNW) 2,271 6.5 -16.1°
Maximum altitude 19:18:20 78° 63° (ENE) 771 3.4 -16.9°
Enters shadow 19:21:41 22° 147° (SSE) 1,589 4.7 -17.3°
